sat.trackr.live / text

‹ back to catalog

STARLINK-37296

NORAD 68672 · 2026-077L

PAYLOAD ACTIVE UNKNOWN

§ Identity

Operator
Country
US
Launch date
2026-04-11
Launch site
AFWTR
Launch vehicle
Mass (kg)
RCS (m²)

Purposes: comms

External: N2YO · Heavens-Above · Gunter

§ Orbital elements

Epoch: 2026-05-25T03:17:16.393056Z

Period
93.91 min
Inclination
97.2866°
Eccentricity
0.0001622
Mean motion
15.33457137 rev/d
Perigee alt
464.4 km
Apogee alt
466.6 km
Semi-major
6,843.6 km
B*
2.8982e-4
RAAN
16.7092°
Arg perigee
99.8945°
Mean anomaly
260.2481°
Rev number
687

§ Raw data

STARLINK-372961 68672U 26077L   26145.13699529  .00009297  00000+0  28982-3 0  99912 68672  97.2866  16.7092 0001622  99.8945 260.2481 15.33457137  6872

JSON: /api/v1/satellites/68672 · /tle

For live sub-satellite position, see the globe view (requires WebGL).

§ Visibility from observer

Set your observer location to see the next 7 days of passes ≥ 10°. The values pass through the URL so the page stays shareable.

No JS? Fill the form by hand. The geolocation button needs JavaScript.